[[{"header":{"parameterUnit":"m.s-1","parameterCategory":1,"la1":30.2991,"la2":30.254,"lo1":-89.0895,"lo2":-89.0444,"dy":0.0017,"dx":0.0017,"nx":28,"ny":28,"refTime":"2024-05-28T09:00:00:Z","depth":0,"parameterNumber":2,"parameterNumberName":"U-component_of_WINDS"},"data":[0,0,0,0,0,0,0,0,0,0,0,0,0,0,0,0,0,0,0,0,0,0,0,0,0,0,0,0,0,0,0,0,0,0,0,0,0,0,0,0,0,0,0,0,0,0,0,0,0,0,0,0,0,0,0,0,0,0,1.2806,1.2807,0,1.2893,1.2894,1.2895,1.2916,1.2915,1.2915,1.2914,1.3001,1.3004,1.3007,0,0,0,0,0,0,0,0,0,0,0,0,0,1.2655,1.2657,1.2806,1.2807,1.2808,1.2893,1.2894,1.2895,1.2916,1.2915,1.2914,1.2914,1.3,1.3004,1.3007,0,0,0,0,0,0,0,0,0,0,0,0,0,1.2729,1.2658,1.2805,1.2828,1.2831,1.2892,1.2894,1.2895,1.2916,1.2915,1.2914,1.2913,1.2999,1.3003,1.3008,1.3051,0,0,1.3021,1.3023,0,0,0,0,0,0,0,0,1.2724,1.2734,1.2824,1.2827,1.283,1.2893,1.2873,1.2948,1.2916,1.2884,1.2914,1.2913,1.2966,1.2973,1.2991,1.3055,1.3059,1.3021,1.3024,1.3026,1.3027,0,0,0,0,0,0,0,1.2719,1.2731,1.284,1.2825,1.2829,1.2834,1.2843,1.2887,1.2928,1.2887,1.2888,1.2898,1.2967,1.2987,1.2993,1.3061,1.3021,1.3025,1.3027,1.3029,1.3164,1.3165,0,0,0,0,0,0,1.271,1.2726,1.2837,1.2843,1.2774,1.2837,1.2848,1.2873,1.2928,1.2936,1.2899,1.2899,1.298,1.2988,1.2996,1.305,1.3026,1.303,1.3032,1.3163,1.3164,1.3165,0,0,0,0,0,0,1.2707,1.272,1.2834,1.2785,1.28,1.2841,1.2869,1.2876,1.2895,1.2938,1.2945,1.2911,1.2979,1.299,1.3037,1.3053,1.3032,1.3035,1.3162,1.3163,1.3165,1.3158,0,0,0,0,0,0,1.2703,1.2719,1.2737,1.2785,1.2802,1.2874,1.287,1.2878,1.2903,1.2903,1.2951,1.2958,1.298,1.3031,1.3042,1.3059,1.3039,1.316,1.3162,1.3164,1.3157,1.3159,1.3161,0,0,0,0,0,1.2697,1.2731,1.2737,1.2751,1.2825,1.2875,1.2885,1.2909,1.2904,1.2921,1.2949,1.2957,1.305,1.3035,1.3048,1.3066,1.3159,1.3162,1.3164,1.3156,1.3159,1.3161,0,0,0,0,0,0,1.2683,1.2738,1.2746,1.2796,1.2831,1.2879,1.2902,1.2912,1.2948,1.2947,1.2975,1.2986,1.3031,1.3054,1.3036,1.3111,1.3104,1.3109,1.3094,1.3097,1.3099,1.3092,1.3042,0,0,0,0,0,1.2686,1.2722,1.2768,1.2809,1.2826,1.2861,1.2883,1.2899,1.2936,1.295,1.2981,1.3015,1.3052,1.3076,1.3113,1.3161,1.3171,1.318,1.3182,1.3183,1.3186,1.3212,1.3216,1.3173,1.3172,1.3172,0,0,1.2692,1.2727,1.2748,1.2807,1.2835,1.2871,1.2873,1.2911,1.2938,1.2956,1.3002,1.3026,1.3066,1.3113,1.3136,1.3134,1.3201,1.3186,1.3187,1.319,1.3215,1.3219,1.3223,1.3174,1.3174,1.3174,0,0,1.2721,1.2752,1.2788,1.2817,1.286,1.2883,1.2892,1.2938,1.2954,1.3001,1.3015,1.3047,1.3111,1.3138,1.3161,1.32,1.3208,1.3211,1.3221,1.3246,1.3249,1.3252,1.3265,1.3269,1.3214,1.3214,1.3214,0,1.2723,1.2779,1.2805,1.2843,1.2868,1.2886,1.2922,1.2949,1.3002,1.3018,1.3015,1.3094,1.3123,1.3176,1.3186,1.3204,1.3214,1.3205,1.3247,1.325,1.3253,1.3266,1.327,1.3214,1.3214,1.3214,1.3214,0,1.2778,1.2817,1.2841,1.2891,1.2919,1.2956,1.2987,1.3011,1.3025,1.3048,1.3094,1.3129,1.3173,1.3187,1.32,1.3242,1.3239,1.3241,1.3235,1.3257,1.3269,1.3274,1.3214,1.3214,1.3214,1.3214,0,0,1.2801,1.2866,1.2874,1.2896,1.2945,1.2975,1.3012,1.3055,1.3075,1.3111,1.3141,1.3195,1.3196,1.3222,1.3239,1.326,1.3287,1.326,1.3261,1.3262,1.3334,1.3331,1.3336,1.3293,1.3294,1.3295,1.333,0,1.2835,1.2903,1.2927,1.2982,1.3017,1.3035,1.3067,1.31,1.3122,1.3154,1.3178,1.3215,1.3215,1.3231,1.3253,1.3279,1.3302,1.3277,1.3321,1.3322,1.3309,1.3343,1.334,1.3371,1.3335,1.3336,1.3336,0,1.2884,1.2921,1.2979,1.3023,1.3038,1.3067,1.3107,1.3138,1.3175,1.319,1.3218,1.3233,1.3271,1.3264,1.3316,1.3299,1.3318,1.3334,1.3335,1.334,1.333,1.3347,1.3382,1.3386,1.3344,1.3344,1.3343,0,1.2893,1.2957,1.3,1.3019,1.3071,1.309,1.3113,1.315,1.3173,1.3209,1.3224,1.3263,1.3284,1.3314,1.3339,1.3331,1.3388,1.3383,1.34,1.34,1.3411,1.341,1.3449,1.3425,1.3425,1.3425,1.3425,0,1.2928,1.2963,1.3004,1.3031,1.307,1.3097,1.3135,1.3158,1.319,1.3221,1.3238,1.3266,1.3298,1.333,1.3349,1.3389,1.3399,1.3411,1.3415,1.3409,1.3407,1.3421,1.3419,1.3426,1.3426,1.3426,1.3426,0,1.2945,1.2974,1.3021,1.3067,1.3079,1.3106,1.3144,1.317,1.3193,1.3231,1.3241,1.3277,1.3315,1.3343,1.3393,1.3406,1.3448,1.3453,1.3435,1.3437,1.3453,1.345,1.3501,1.3509,1.3481,1.3481,1.3482,0,1.2965,1.2992,1.304,1.3062,1.3084,1.3119,1.3144,1.3171,1.3196,1.324,1.326,1.3299,1.3332,1.3392,1.3422,1.346,1.3465,1.3481,1.3471,1.3463,1.3464,1.3462,1.3464,1.3481,1.3482,1.3482,1.3482,0,1.2996,1.3009,1.3044,1.3084,1.3112,1.3145,1.3177,1.3194,1.3227,1.3253,1.3293,1.3319,1.3369,1.3407,1.3448,1.347,1.3481,1.3485,1.3491,1.3483,1.3472,1.3477,1.3438,1.3483,1.3483,1.3483,1.3483,1.3483,1.3014,1.3039,1.3076,1.3114,1.3142,1.3171,1.3197,1.3223,1.3257,1.33,1.3315,1.3355,1.339,1.3446,1.3469,1.35,1.35,1.3508,1.3511,1.3512,1.3511,1.3467,1.3508,1.3508,1.3508,1.3508,1.3508,0,1.3046,1.3071,1.3105,1.315,1.318,1.3188,1.3225,1.3248,1.3284,1.3316,1.3348,1.3393,1.343,1.3463,1.3502,1.3521,1.3526,1.353,1.3528,1.3533,1.351,1.35,1.3524,1.3524,1.3524,1.3524,1.3524,1.3524,1.3066,1.3107,1.3124,1.3179,1.3204,1.3244,1.3264,1.3291,1.3317,1.3366,1.3397,1.3419,1.3451,1.3492,1.3526,1.3535,1.3547,1.3549,1.3559,1.3536,1.3534,1.3532,1.3524,1.3552,1.3552,1.3579,1.3579,1.3579]},{"header":{"parameterUnit":"m.s-1","parameterCategory":1,"la1":30.2991,"la2":30.254,"lo1":-89.0895,"lo2":-89.0444,"dy":0.0017,"dx":0.0017,"nx":28,"ny":28,"refTime":"2024-05-28T09:00:00:Z","depth":0,"parameterNumber":3,"parameterNumberName":"V-component_of_WINDS"},"data":[0,0,0,0,0,0,0,0,0,0,0,0,0,0,0,0,0,0,0,0,0,0,0,0,0,0,0,0,0,0,0,0,0,0,0,0,0,0,0,0,0,0,0,0,0,0,0,0,0,0,0,0,0,0,0,0,0,0,1.5348,1.5348,0,1.53,1.53,1.5299,1.5229,1.5227,1.5226,1.5225,1.5177,1.5176,1.5176,0,0,0,0,0,0,0,0,0,0,0,0,0,1.5378,1.5377,1.5348,1.5348,1.5347,1.5301,1.53,1.5299,1.5229,1.5227,1.5226,1.5224,1.5177,1.5176,1.5176,0,0,0,0,0,0,0,0,0,0,0,0,0,1.5351,1.5377,1.5348,1.5306,1.5302,1.5301,1.53,1.5299,1.5229,1.5227,1.5225,1.5224,1.5177,1.5176,1.5176,1.5212,0,0,1.5176,1.5175,0,0,0,0,0,0,0,0,1.5353,1.535,1.5313,1.5309,1.5304,1.5269,1.5292,1.527,1.523,1.5257,1.5225,1.5223,1.5209,1.5206,1.5201,1.521,1.5208,1.5176,1.5175,1.5175,1.5175,0,0,0,0,0,0,0,1.5354,1.5352,1.5329,1.5313,1.5307,1.529,1.5284,1.5288,1.5244,1.5254,1.5249,1.5244,1.5206,1.5201,1.5199,1.5207,1.5176,1.5175,1.5175,1.5175,1.5241,1.5243,0,0,0,0,0,0,1.5363,1.5354,1.5331,1.5328,1.5324,1.5291,1.5284,1.5282,1.5244,1.5236,1.5246,1.5241,1.5202,1.52,1.5197,1.5235,1.5175,1.5175,1.5175,1.5239,1.5241,1.5243,0,0,0,0,0,0,1.5363,1.5361,1.5333,1.5339,1.5334,1.5292,1.529,1.5282,1.5277,1.5237,1.5229,1.5249,1.5201,1.5197,1.5208,1.5233,1.5175,1.5175,1.5237,1.524,1.5242,1.5314,0,0,0,0,0,0,1.5365,1.5362,1.5376,1.534,1.5334,1.5345,1.5292,1.5282,1.5277,1.527,1.5238,1.5231,1.5199,1.5209,1.5208,1.5232,1.5175,1.5234,1.5238,1.5241,1.5309,1.5318,1.5327,0,0,0,0,0,1.5366,1.5398,1.5377,1.5374,1.535,1.5347,1.5344,1.5306,1.5279,1.5292,1.5266,1.5232,1.523,1.5211,1.5209,1.5233,1.5233,1.5237,1.5241,1.5305,1.5317,1.5326,0,0,0,0,0,0,1.5438,1.5393,1.5368,1.539,1.5373,1.5335,1.535,1.532,1.531,1.5304,1.5258,1.5252,1.5268,1.5251,1.5231,1.5265,1.5226,1.523,1.5275,1.5286,1.5295,1.5298,1.5175,0,0,0,0,0,1.5456,1.5458,1.5418,1.544,1.5433,1.5393,1.5391,1.5363,1.5343,1.5336,1.5311,1.5293,1.5288,1.5286,1.5279,1.5306,1.5297,1.5321,1.533,1.5337,1.5342,1.5353,1.5363,1.5257,1.5257,1.5257,0,0,1.5494,1.547,1.5473,1.5454,1.5438,1.544,1.5388,1.5392,1.5393,1.5337,1.5345,1.5326,1.5303,1.5321,1.5328,1.5308,1.5369,1.5343,1.5349,1.5349,1.5358,1.5368,1.5377,1.526,1.526,1.5259,0,0,1.5564,1.5546,1.5563,1.5547,1.5522,1.5495,1.5499,1.5466,1.5451,1.5458,1.5415,1.5415,1.5409,1.5393,1.5385,1.5447,1.5415,1.5446,1.5493,1.5505,1.5513,1.552,1.5541,1.555,1.5451,1.5451,1.5451,0,1.5615,1.5616,1.5575,1.5582,1.5574,1.5522,1.5538,1.5525,1.55,1.5495,1.5473,1.5462,1.5443,1.5456,1.5471,1.5466,1.5469,1.545,1.5515,1.5522,1.5528,1.5548,1.5556,1.5455,1.5454,1.5454,1.5454,0,1.5679,1.568,1.5697,1.5673,1.5667,1.5678,1.5638,1.5637,1.561,1.5585,1.5593,1.5568,1.5555,1.5556,1.5529,1.5565,1.5553,1.5524,1.5484,1.5542,1.556,1.5568,1.546,1.5459,1.5458,1.5457,0,0,1.5794,1.5746,1.5753,1.5741,1.5709,1.5709,1.5718,1.5704,1.5704,1.5688,1.5693,1.5687,1.5659,1.565,1.5621,1.5631,1.5681,1.56,1.5598,1.5615,1.5717,1.574,1.5749,1.5659,1.566,1.5661,1.5719,0,1.5858,1.587,1.5832,1.5854,1.5854,1.5804,1.5811,1.5792,1.5768,1.5765,1.5739,1.5735,1.5699,1.5692,1.57,1.5673,1.5701,1.5668,1.5663,1.5663,1.567,1.5759,1.5783,1.5838,1.5726,1.5727,1.5728,0,1.5934,1.5921,1.5943,1.5908,1.5907,1.5914,1.5898,1.5895,1.5872,1.5854,1.5843,1.5809,1.5813,1.5775,1.5781,1.576,1.5755,1.5741,1.5742,1.5741,1.5699,1.5759,1.5855,1.5864,1.5738,1.5738,1.5737,0,1.6015,1.6003,1.6014,1.6005,1.5966,1.5972,1.5956,1.593,1.5924,1.591,1.5905,1.5892,1.5885,1.5875,1.5838,1.5814,1.5847,1.5806,1.5832,1.5833,1.5842,1.5842,1.5939,1.5839,1.5839,1.5839,1.5839,0,1.609,1.6105,1.605,1.6057,1.6071,1.6027,1.6043,1.6022,1.5999,1.6,1.5956,1.5958,1.5909,1.5905,1.5876,1.5884,1.5881,1.5867,1.5859,1.5871,1.5872,1.5867,1.5862,1.5841,1.5841,1.584,1.584,0,1.6184,1.6148,1.6156,1.6117,1.6108,1.612,1.6087,1.6091,1.6064,1.6066,1.6064,1.6022,1.6015,1.5977,1.5961,1.5941,1.5959,1.5944,1.5968,1.5962,1.599,1.5988,1.6087,1.6097,1.5992,1.5993,1.5993,0,1.6234,1.6244,1.6206,1.6204,1.619,1.6186,1.6179,1.6136,1.6131,1.6104,1.6111,1.61,1.609,1.608,1.6048,1.6035,1.6019,1.6054,1.6017,1.6028,1.6019,1.6018,1.6019,1.6063,1.6064,1.6065,1.6066,0,1.6327,1.6308,1.63,1.6286,1.6279,1.6266,1.6249,1.625,1.6201,1.6198,1.619,1.6181,1.6164,1.6154,1.6135,1.6117,1.6084,1.6078,1.6083,1.6095,1.6108,1.6101,1.5989,1.6076,1.6075,1.6074,1.6074,1.6073,1.64,1.6406,1.638,1.6373,1.6356,1.6341,1.6343,1.6316,1.6309,1.6292,1.6266,1.6261,1.6236,1.6207,1.6192,1.6187,1.6168,1.6176,1.6177,1.618,1.6186,1.6109,1.6184,1.6183,1.6183,1.6183,1.6182,0,1.649,1.6471,1.6464,1.6442,1.6436,1.6404,1.6384,1.6381,1.6377,1.6357,1.6347,1.6337,1.6326,1.6292,1.6278,1.628,1.6264,1.6278,1.6277,1.6273,1.6204,1.6201,1.6291,1.6291,1.6291,1.6291,1.6291,1.6291,1.6536,1.6545,1.6523,1.6522,1.6502,1.6497,1.6488,1.6474,1.6457,1.6448,1.6439,1.6417,1.639,1.6373,1.6361,1.6352,1.6348,1.6367,1.6352,1.6289,1.6278,1.6268,1.6265,1.6367,1.6367,1.6421,1.6422,1.6422]}]]